Flag for USA

Past Weather in Westport, Connecticut, USA — Yesterday and Last 2 Weeks

Now
44 °F

Clear.


Feels Like: 44 °F
Forecast: 70 / 45 °F
Wind: No wind

Location: Sikorsky Memorial Airport
Current Time: Sep 22, 2020 at 4:53:25 am
Latest Report: Sep 22, 2020 at 3:52 am
Visibility: 10 mi
Pressure30.26 "Hg
Humidity: 76%
Dew Point: 37 °F
Location of WestportLocation

Past Weather in Westport — Graph

°F

Westport Temperature Yesterday

Maximum temperature yesterday: 66 °F (at 3:52 pm)
Minimum temperature yesterday: 45 °F (at 5:52 am)
Average temperature yesterday: 55 °F

High & Low Weather Summary for the Past Weeks

 TemperatureHumidityPressure
High80 °F (Sep 7, 1:52 pm)97% (Sep 10, 5:52 am)30.58 "Hg (Sep 10, 5:52 am)
Low45 °F (Sep 21, 5:52 am)24% (Sep 19, 2:52 pm)29.91 "Hg (Sep 18, 3:52 am)
Average67 °F67%30.21 "Hg
* Reported Sep 7 2:52 am — Sep 22 2:52 am, Westport. Weather by CustomWeather, © 2020

Note: Actual official high and low records may vary slightly from our data, if they occured in-between our weather recording intervals... More about our weather records

Westport Weather History for the Previous 24 Hours

Scroll right to see more
 ConditionsComfort  
Time TempWeatherWind HumidityBarometerVisibility
2:52 am
Tue, Sep 22
45 °FClear.6 mph74%30.29 "Hg10 mi
1:52 am47 °FClear.7 mph69%30.32 "Hg10 mi
12:52 am48 °FClear.7 mph66%30.34 "Hg10 mi
11:52 pm
Mon, Sep 21
50 °FClear.7 mph63%30.36 "Hg10 mi
10:52 pm54 °FClear.6 mph55%30.38 "Hg10 mi
9:52 pm54 °FClear.7 mph55%30.40 "Hg10 mi
8:52 pm56 °FClear.6 mph46%30.41 "Hg10 mi
7:52 pm59 °FClear.6 mph41%30.42 "Hg10 mi
6:52 pm61 °FClear.5 mph35%30.43 "Hg10 mi
5:52 pm65 °FSunny.10 mph29%30.43 "Hg10 mi
4:52 pm66 °FSunny.10 mph28%30.45 "Hg10 mi
3:52 pm66 °FSunny.9 mph28%30.47 "Hg10 mi
2:52 pm65 °FSunny.9 mph29%30.50 "Hg10 mi
1:52 pm65 °FSunny.8 mph29%30.53 "Hg10 mi
12:52 pm63 °FSunny.9 mph34%30.55 "Hg10 mi
11:52 am62 °FSunny.15 mph38%30.57 "Hg10 mi
10:52 am61 °FSunny.14 mph39%30.58 "Hg10 mi
9:52 am57 °FSunny.15 mph47%30.58 "Hg10 mi
8:52 am52 °FSunny.13 mph57%30.57 "Hg10 mi
7:52 am47 °FSunny.13 mph69%30.57 "Hg10 mi
6:52 am45 °FSunny.12 mph68%30.57 "Hg10 mi
5:52 am45 °FClear.10 mph71%30.56 "Hg10 mi
4:52 am46 °FClear.10 mph66%30.55 "Hg10 mi
Weather by CustomWeather, © 2020

See weather overview